Temp
-7 -7 -7 -6 -6 -6 -6 -6 -5 -5 -5 -5 -5 -5 -5 -5 -5 -5 -4 -4 -4 -4 -4 -4 -4 -5 -5 -5 -5 -5 -5 -5 -5 -5 -5 -5 -5 -6 -6 -5 -6 -6 -6 -6 -6 -6 -6 -6 -6 -7 -7 -7 -7 -7 -7 -7 -7 -7 -7 -7 -7 -7 -7
-6 -7 -7 -7 -6 -6 -6 -6 -5 -5 -5 -5 -5 -5 -5 -5 -5 -4 -4 -4 -4 -4 -4 -4 -4 -4 -5 -5 -5 -5 -5 -5 -5 -5 -5 -5 -5 -6 -6 -5 -5 -6 -6 -6 -6 -6 -6 -6 -6 -7 -7 -7 -7 -7 -7 -7 -7 -7 -7 -7 -7 -7 -7
-6 -6 -7 -7 -6 -6 -6 -6 -5 -5 -5 -5 -5 -5 -5 -5 -5 -5 -4 -4 -4 -4 -4 -4 -4 -4 -4 -4 -4 -4 -4 -4 -5 -5 -5 -5 -5 -5 -5 -5 -5 -5 -6 -6 -6 -6 -6 -6 -6 -6 -7 -7 -7 -7 -7 -7 -7 -7 -7 -7 -7 -7 -7
-6 -6 -7 -7 -7 -6 -6 -6 -5 -5 -5 -5 -5 -5 -5 -5 -5 -5 -5 -4 -4 -4 -4 -4 -4 -4 -4 -4 -4 -5 -5 -5 -5 -5 -5 -5 -5 -5 -5 -5 -5 -5 -5 -6 -6 -6 -6 -6 -6 -6 -6 -7 -7 -7 -7 -7 -7 -7 -7 -8 -7 -8 -8
-6 -7 -7 -7 -7 -6 -6 -6 -5 -5 -5 -5 -5 -5 -5 -5 -5 -5 -5 -4 -4 -4 -4 -5 -5 -4 -5 -5 -5 -5 -5 -5 -5 -5 -5 -5 -5 -5 -5 -6 -6 -5 -6 -6 -6 -6 -6 -6 -6 -6 -6 -7 -7 -7 -7 -7 -7 -7 -8 -8 -8 -8 -8
-6 -7 -7 -6 -7 -7 -6 -6 -6 -6 -6 -6 -5 -5 -5 -5 -5 -5 -5 -5 -5 -4 -4 -4 -4 -5 -5 -5 -5 -5 -5 -5 -5 -5 -5 -5 -6 -6 -6 -6 -6 -6 -6 -6 -6 -6 -6 -6 -6 -6 -7 -7 -7 -7 -7 -7 -7 -7 -8 -8 -8 -8 -8
-6 -6 -6 -7 -7 -7 -6 -6 -6 -6 -6 -6 -6 -6 -6 -5 -5 -5 -5 -5 -5 -5 -5 -5 -5 -5 -5 -5 -5 -5 -6 -6 -6 -6 -6 -6 -6 -6 -6 -6 -6 -6 -6 -6 -6 -6 -6 -6 -6 -7 -7 -7 -7 -7 -7 -7 -7 -7 -8 -8 -8 -8 -8
-6 -6 -6 -7 -7 -7 -6 -7 -7 -7 -7 -6 -6 -6 -6 -6 -5 -5 -5 -4 -5 -5 -5 -5 -5 -5 -5 -5 -5 -6 -6 -6 -6 -6 -6 -6 -6 -6 -7 -7 -7 -7 -7 -6 -6 -6 -6 -6 -6 -7 -7 -7 -7 -7 -7 -7 -7 -8 -8 -8 -8 -8 -8
-6 -6 -6 -7 -7 -7 -6 -7 -7 -7 -7 -7 -6 -6 -6 -6 -5 -5 -5 -5 -5 -5 -5 -5 -5 -5 -5 -5 -6 -6 -6 -6 -6 -6 -6 -6 -6 -6 -7 -7 -7 -7 -7 -7 -7 -7 -7 -7 -7 -7 -7 -7 -7 -7 -7 -7 -8 -8 -8 -8 -8 -8 -8
-6 -6 -6 -6 -7 -6 -7 -7 -7 -7 -7 -7 -7 -6 -6 -5 -5 -5 -5 -5 -5 -5 -5 -5 -5 -5 -5 -5 -6 -6 -6 -6 -6 -6 -6 -6 -6 -6 -7 -7 -7 -7 -7 -7 -7 -7 -7 -7 -7 -7 -7 -7 -7 -8 -8 -8 -8 -8 -8 -8 -8 -8 -8
-6 -6 -6 -6 -6 -6 -7 -7 -7 -7 -7 -7 -7 -6 -6 -6 -6 -6 -6 -5 -5 -5 -5 -5 -5 -5 -5 -5 -5 -6 -6 -6 -6 -6 -6 -6 -6 -6 -6 -6 -6 -7 -7 -7 -7 -7 -7 -7 -7 -7 -7 -7 -8 -8 -8 -8 -8 -8 -8 -8 -8 -8 -8
-6 -6 -6 -6 -6 -6 -6 -6 -6 -6 -6 -6 -6 -6 -6 -6 -6 -6 -6 -6 -5 -5 -5 -5 -5 -5 -5 -5 -5 -6 -6 -6 -6 -6 -6 -6 -6 -6 -6 -6 -6 -6 -7 -7 -7 -7 -7 -7 -7 -7 -7 -8 -8 -8 -8 -8 -8 -8 -8 -8 -8 -8 -8
-6 -6 -6 -6 -6 -6 -6 -6 -6 -6 -6 -6 -6 -6 -6 -6 -6 -6 -6 -6 -5 -5 -5 -5 -5 -5 -5 -5 -5 -6 -6 -6 -6 -6 -6 -6 -6 -6 -6 -6 -7 -7 -7 -7 -7 -7 -7 -7 -7 -7 -8 -8 -8 -8 -8 -8 -8 -8 -8 -8 -8 -8 -8
-5 -6 -6 -6 -6 -6 -6 -6 -6 -6 -6 -6 -6 -6 -6 -6 -6 -6 -6 -6 -5 -5 -5 -5 -5 -5 -5 -5 -5 -5 -6 -6 -6 -6 -6 -6 -6 -6 -7 -7 -7 -7 -7 -7 -7 -7 -7 -7 -7 -7 -7 -7 -7 -8 -8 -8 -8 -8 -8 -8 -8 -8 -8
-5 -5 -6 -6 -6 -6 -6 -6 -6 -6 -6 -6 -6 -6 -6 -6 -6 -6 -6 -6 -5 -5 -5 -5 -5 -5 -5 -5 -5 -5 -6 -6 -6 -6 -6 -6 -6 -6 -7 -7 -7 -7 -7 -7 -7 -7 -7 -7 -7 -7 -7 -7 -7 -7 -7 -7 -8 -8 -8 -8 -8 -8 -8
-5 -5 -5 -5 -6 -6 -5 -5 -5 -6 -6 -6 -6 -6 -6 -6 -6 -6 -6 -6 -6 -5 -5 -5 -5 -5 -5 -5 -5 -6 -6 -6 -6 -6 -6 -6 -6 -6 -7 -7 -7 -7 -7 -7 -7 -7 -7 -7 -7 -7 -7 -7 -7 -7 -7 -7 -7 -7 -8 -8 -8 -8 -8
-4 -4 -5 -5 -5 -5 -5 -5 -5 -5 -5 -6 -6 -6 -6 -6 -6 -6 -6 -6 -6 -6 -6 -5 -5 -5 -5 -5 -6 -6 -6 -6 -6 -6 -6 -6 -6 -6 -7 -7 -7 -7 -7 -7 -7 -7 -7 -7 -7 -7 -7 -7 -7 -7 -7 -7 -7 -7 -7 -8 -8 -8 -8
-4 -4 -4 -5 -5 -5 -5 -5 -5 -5 -5 -6 -6 -6 -6 -6 -6 -6 -6 -6 -6 -6 -6 -6 -6 -5 -5 -5 -6 -6 -6 -6 -6 -6 -7 -7 -7 -7 -7 -7 -7 -7 -7 -7 -7 -7 -7 -7 -7 -8 -8 -7 -7 -7 -7 -7 -7 -7 -7 -7 -7 -8 -8
-4 -4 -4 -4 -4 -4 -4 -4 -4 -5 -5 -5 -6 -6 -6 -6 -6 -6 -7 -7 -6 -6 -6 -6 -6 -6 -6 -6 -6 -6 -6 -6 -7 -7 -7 -7 -7 -7 -7 -7 -7 -7 -7 -7 -7 -7 -7 -7 -7 -7 -7 -7 -7 -7 -7 -7 -7 -7 -7 -7 -8 -8 -8
-3 -4 -4 -4 -4 -4 -4 -4 -4 -4 -5 -5 -5 -6 -6 -6 -6 -6 -7 -7 -6 -6 -6 -6 -6 -6 -6 -6 -6 -6 -7 -7 -7 -7 -7 -7 -7 -7 -7 -7 -7 -7 -7 -7 -7 -7 -7 -7 -7 -7 -7 -7 -7 -7 -7 -7 -7 -7 -7 -8 -8 -8 -8
-3 -3 -3 -3 -4 -4 -4 -4 -4 -4 -5 -5 -5 -5 -6 -6 -6 -6 -7 -7 -7 -7 -7 -7 -6 -6 -6 -6 -6 -6 -6 -7 -7 -7 -7 -7 -7 -7 -7 -7 -7 -7 -7 -7 -7 -7 -7 -8 -7 -7 -8 -7 -7 -7 -7 -7 -8 -8 -8 -8 -8 -8 -8
-3 -3 -3 -3 -3 -3 -3 -3 -4 -4 -4 -4 -5 -5 -6 -6 -6 -6 -7 -7 -7 -7 -7 -7 -7 -6 -6 -6 -6 -6 -6 -6 -7 -7 -7 -7 -7 -7 -7 -7 -7 -7 -7 -7 -7 -7 -8 -8 -8 -8 -8 -8 -8 -7 -7 -8 -8 -8 -8 -8 -8 -8 -8
-4 -3 -3 -3 -3 -3 -3 -3 -4 -4 -4 -4 -5 -5 -6 -6 -6 -6 -7 -7 -7 -7 -7 -7 -7 -7 -6 -6 -6 -6 -6 -6 -7 -7 -7 -7 -7 -7 -7 -7 -7 -7 -7 -7 -7 -7 -7 -8 -8 -8 -8 -8 -8 -8 -8 -8 -8 -8 -8 -8 -8 -8 -8
-4 -4 -3 -3 -3 -3 -3 -4 -4 -4 -4 -4 -4 -5 -6 -6 -6 -7 -7 -7 -7 -7 -7 -7 -7 -7 -7 -6 -6 -6 -6 -7 -7 -7 -7 -7 -7 -7 -7 -7 -7 -7 -7 -7 -7 -7 -7 -7 -7 -7 -7 -7 -7 -7 -7 -7 -7 -8 -8 -8 -8 -8 -8
-4 -4 -4 -4 -4 -4 -4 -4 -4 -4 -4 -4 -4 -5 -5 -6 -6 -7 -7 -7 -7 -7 -7 -7 -7 -7 -6 -6 -6 -6 -7 -7 -7 -7 -7 -7 -7 -7 -7 -7 -7 -8 -8 -7 -7 -7 -7 -7 -7 -7 -7 -7 -7 -7 -7 -7 -7 -7 -8 -8 -8 -8 -8
-4 -4 -4 -4 -4 -4 -4 -4 -4 -4 -4 -4 -4 -5 -5 -6 -6 -7 -7 -7 -7 -7 -7 -7 -7 -7 -6 -6 -7 -7 -7 -7 -7 -7 -7 -7 -7 -7 -7 -7 -7 -7 -7 -7 -7 -7 -7 -7 -7 -7 -7 -7 -7 -7 -8 -8 -8 -8 -8 -8 -8 -8 -8
-5 -4 -4 -4 -4 -4 -4 -4 -4 -4 -4 -4 -4 -5 -5 -5 -6 -6 -6 -7 -7 -7 -7 -7 -7 -7 -7 -7 -7 -7 -7 -7 -7 -7 -7 -7 -7 -7 -7 -7 -7 -7 -7 -7 -7 -7 -7 -7 -7 -7 -7 -7 -8 -8 -8 -8 -8 -8 -8 -8 -8 -8 -8
-5 -5 -5 -4 -4 -4 -4 -4 -4 -4 -4 -4 -4 -5 -5 -5 -5 -5 -6 -6 -7 -7 -7 -7 -7 -7 -7 -7 -7 -7 -7 -7 -7 -7 -7 -7 -7 -7 -7 -7 -7 -7 -7 -7 -7 -7 -7 -7 -7 -7 -7 -7 -7 -7 -7 -8 -8 -8 -8 -8 -8 -8 -8
-5 -5 -5 -5 -5 -4 -4 -4 -5 -5 -5 -5 -5 -4 -5 -5 -5 -5 -6 -6 -6 -7 -7 -7 -7 -7 -7 -7 -7 -7 -7 -7 -7 -7 -7 -7 -7 -7 -7 -7 -7 -7 -7 -7 -7 -7 -7 -7 -7 -7 -7 -7 -7 -7 -8 -8 -8 -8 -8 -8 -8 -8 -8
-6 -6 -5 -5 -5 -5 -4 -5 -5 -5 -5 -5 -5 -5 -5 -5 -5 -5 -5 -6 -6 -6 -7 -7 -7 -7 -7 -7 -7 -7 -7 -7 -7 -7 -7 -7 -7 -7 -7 -7 -7 -7 -7 -7 -7 -7 -7 -7 -7 -7 -7 -7 -8 -8 -8 -8 -8 -8 -8 -8 -8 -8 -8
-6 -6 -6 -6 -5 -5 -5 -5 -5 -5 -5 -5 -5 -5 -5 -5 -5 -5 -5 -6 -6 -6 -7 -7 -7 -7 -7 -7 -7 -7 -7 -7 -7 -7 -7 -7 -7 -7 -7 -7 -7 -7 -7 -7 -7 -7 -7 -8 -8 -8 -8 -8 -8 -8 -8 -8 -8 -8 -8 -8 -8 -8 -8
-6 -6 -6 -6 -6 -6 -5 -5 -5 -5 -5 -5 -5 -5 -5 -5 -5 -5 -5 -5 -6 -6 -6 -7 -7 -7 -7 -7 -7 -7 -7 -7 -7 -7 -7 -7 -7 -7 -7 -7 -7 -7 -7 -8 -8 -8 -8 -8 -8 -8 -8 -8 -8 -8 -8 -8 -8 -8 -8 -8 -8 -8 -8
-6 -6 -6 -6 -6 -6 -6 -6 -5 -5 -5 -5 -5 -5 -5 -5 -5 -5 -6 -6 -6 -6 -6 -7 -7 -7 -7 -7 -7 -7 -7 -7 -7 -7 -7 -7 -7 -7 -7 -8 -8 -8 -8 -8 -8 -8 -8 -8 -8 -8 -8 -8 -8 -8 -8 -8 -8 -8 -8 -7 -7 -8 -8
-6 -6 -6 -6 -6 -6 -6 -6 -6 -6 -6 -5 -5 -5 -5 -6 -6 -6 -6 -6 -6 -6 -6 -6 -7 -7 -7 -7 -7 -7 -7 -7 -7 -7 -7 -8 -8 -8 -8 -8 -8 -8 -8 -8 -8 -8 -8 -8 -8 -8 -8 -8 -8 -8 -8 -8 -8 -8 -8 -7 -7 -8 -8
-7 -7 -6 -6 -7 -6 -6 -6 -6 -6 -6 -6 -6 -6 -6 -6 -6 -6 -6 -6 -6 -6 -6 -6 -7 -7 -7 -7 -7 -7 -7 -7 -8 -8 -8 -8 -8 -8 -8 -8 -8 -8 -8 -8 -8 -8 -8 -8 -8 -8 -8 -8 -8 -8 -8 -8 -8 -8 -8 -8 -7 -7 -8
-7 -7 -7 -7 -7 -7 -7 -7 -6 -6 -6 -6 -6 -6 -6 -6 -6 -6 -6 -6 -6 -6 -6 -6 -7 -7 -7 -7 -7 -7 -7 -8 -8 -8 -8 -8 -8 -8 -8 -8 -8 -8 -8 -8 -8 -8 -8 -8 -7 -7 -7 -7 -7 -7 -8 -7 -8 -8 -8 -8 -7 -7 -7
-8 -7 -7 -7 -7 -7 -7 -7 -7 -7 -7 -7 -7 -7 -7 -6 -6 -6 -6 -6 -6 -6 -7 -7 -7 -7 -7 -7 -7 -7 -7 -7 -7 -7 -7 -7 -7 -7 -7 -7 -7 -7 -8 -8 -8 -8 -7 -7 -7 -7 -7 -7 -7 -7 -7 -7 -7 -7 -8 -8 -7 -7 -7
-8 -8 -8 -8 -7 -7 -7 -7 -7 -7 -7 -7 -7 -7 -7 -7 -7 -7 -7 -6 -6 -6 -7 -7 -7 -7 -7 -7 -7 -7 -7 -7 -7 -7 -7 -7 -7 -7 -8 -8 -8 -8 -7 -7 -7 -7 -7 -7 -7 -7 -7 -7 -7 -6 -6 -6 -6 -6 -7 -7 -7 -7 -7
Height
5883 5885 5886 5887 5889 5890 5891 5892 5893 5894 5895 5896 5898 5899 5900 5902 5904 5905 5906 5908 5909 5910 5911 5912 5913 5914 5915 5916 5917 5918 5919 5920 5921 5922 5923 5924 5925 5926 5927 5928 5929 5930 5931 5932 5933 5933 5934 5936 5936 5937 5937 5937 5937 5937 5937 5936 5936 5936 5936 5937 5937 5937 5937
5881 5883 5885 5886 5887 5889 5890 5891 5892 5893 5894 5895 5896 5897 5899 5901 5903 5904 5905 5906 5907 5908 5909 5910 5912 5912 5913 5914 5915 5916 5917 5919 5920 5921 5922 5922 5923 5924 5925 5926 5927 5928 5929 5930 5931 5932 5933 5934 5935 5935 5936 5936 5936 5936 5935 5935 5935 5935 5935 5936 5936 5936 5936
5880 5882 5883 5885 5886 5888 5889 5890 5891 5892 5893 5894 5895 5896 5898 5900 5901 5902 5903 5904 5905 5906 5908 5909 5910 5911 5912 5913 5914 5915 5916 5917 5918 5919 5920 5921 5921 5922 5923 5924 5925 5926 5927 5928 5929 5930 5931 5932 5933 5934 5934 5935 5935 5935 5934 5934 5934 5934 5934 5934 5935 5935 5935
5879 5880 5882 5883 5885 5886 5887 5888 5890 5891 5893 5894 5895 5895 5897 5898 5899 5900 5901 5903 5904 5905 5906 5907 5908 5909 5910 5911 5912 5914 5915 5916 5917 5918 5918 5919 5919 5920 5921 5922 5923 5924 5925 5926 5927 5928 5930 5930 5931 5932 5932 5933 5933 5933 5933 5933 5933 5933 5933 5933 5934 5934 5934
5877 5879 5880 5882 5884 5885 5886 5887 5889 5891 5892 5894 5895 5895 5896 5896 5897 5898 5900 5901 5902 5903 5904 5905 5906 5908 5909 5910 5911 5912 5913 5914 5915 5916 5917 5917 5918 5919 5920 5920 5921 5922 5923 5924 5926 5927 5928 5929 5929 5930 5931 5931 5932 5932 5932 5932 5931 5931 5931 5932 5932 5932 5933
5875 5877 5878 5880 5882 5883 5885 5887 5888 5890 5891 5892 5893 5894 5894 5894 5895 5897 5898 5899 5900 5901 5902 5903 5905 5906 5908 5909 5910 5911 5912 5913 5913 5914 5915 5916 5916 5917 5918 5919 5919 5920 5921 5922 5924 5925 5926 5927 5928 5928 5929 5929 5930 5930 5930 5930 5930 5930 5930 5930 5931 5931 5931
5873 5874 5877 5879 5880 5882 5884 5885 5886 5887 5888 5889 5890 5891 5892 5893 5894 5895 5896 5897 5898 5899 5901 5902 5903 5905 5906 5907 5908 5909 5910 5911 5911 5912 5912 5913 5914 5915 5916 5916 5917 5918 5919 5920 5922 5923 5924 5925 5926 5926 5927 5927 5928 5928 5928 5928 5928 5928 5928 5929 5929 5929 5929
5870 5872 5875 5877 5878 5880 5881 5882 5883 5884 5885 5885 5887 5889 5890 5891 5893 5894 5895 5897 5897 5897 5899 5901 5902 5903 5904 5905 5906 5907 5908 5908 5909 5910 5910 5911 5912 5912 5913 5914 5915 5915 5917 5918 5919 5920 5922 5923 5923 5924 5925 5925 5926 5926 5926 5926 5926 5926 5927 5927 5927 5927 5927
5867 5870 5872 5874 5875 5878 5879 5880 5880 5881 5882 5883 5884 5886 5888 5889 5891 5893 5894 5895 5895 5896 5898 5899 5900 5901 5902 5903 5904 5905 5905 5906 5908 5908 5909 5909 5910 5910 5911 5911 5912 5913 5914 5915 5916 5918 5919 5920 5921 5922 5922 5923 5923 5924 5924 5924 5924 5924 5924 5925 5925 5925 5925
5863 5866 5868 5870 5872 5875 5876 5876 5877 5878 5880 5881 5882 5883 5885 5887 5889 5891 5892 5893 5894 5896 5897 5897 5898 5899 5900 5901 5902 5902 5903 5905 5906 5906 5907 5908 5908 5908 5908 5909 5909 5910 5911 5912 5913 5915 5916 5917 5918 5919 5920 5920 5921 5921 5921 5921 5922 5922 5922 5922 5922 5923 5923
5861 5863 5866 5868 5870 5871 5872 5873 5875 5876 5878 5880 5881 5881 5882 5885 5887 5888 5890 5891 5892 5894 5894 5895 5896 5897 5898 5899 5899 5900 5901 5902 5903 5904 5905 5905 5906 5906 5906 5907 5907 5908 5909 5910 5911 5912 5913 5914 5915 5916 5917 5917 5917 5918 5918 5918 5919 5919 5920 5920 5920 5920 5921
5857 5860 5863 5865 5867 5868 5869 5871 5873 5874 5876 5878 5879 5879 5880 5882 5884 5885 5887 5888 5890 5891 5891 5892 5893 5895 5896 5896 5897 5898 5899 5900 5901 5902 5902 5903 5903 5904 5904 5905 5905 5906 5906 5907 5908 5909 5910 5911 5912 5913 5914 5914 5914 5914 5915 5915 5915 5916 5917 5917 5917 5918 5918
5854 5857 5859 5861 5863 5865 5866 5869 5870 5872 5873 5875 5877 5878 5879 5880 5881 5883 5884 5886 5886 5887 5888 5889 5891 5893 5894 5894 5895 5896 5898 5899 5900 5900 5900 5901 5901 5902 5903 5903 5903 5904 5904 5904 5905 5906 5907 5908 5909 5909 5910 5910 5910 5911 5911 5911 5912 5913 5913 5914 5914 5915 5915
5850 5853 5855 5857 5858 5860 5863 5865 5867 5869 5870 5872 5874 5876 5877 5878 5879 5880 5882 5883 5883 5884 5885 5886 5888 5890 5892 5892 5893 5895 5896 5897 5897 5897 5898 5899 5900 5901 5901 5902 5902 5902 5902 5903 5903 5904 5904 5905 5906 5906 5906 5907 5907 5907 5908 5908 5909 5909 5910 5911 5912 5912 5913
5846 5848 5850 5852 5854 5856 5858 5861 5863 5866 5867 5869 5871 5873 5875 5876 5877 5878 5879 5880 5880 5881 5882 5883 5885 5887 5889 5890 5891 5893 5894 5894 5894 5895 5896 5897 5898 5899 5900 5900 5901 5901 5901 5901 5902 5902 5903 5903 5904 5904 5904 5905 5905 5905 5905 5906 5906 5907 5907 5908 5909 5910 5910
5841 5843 5845 5847 5849 5852 5854 5856 5859 5861 5863 5865 5867 5869 5871 5873 5874 5875 5876 5877 5878 5879 5879 5880 5882 5884 5886 5887 5889 5890 5891 5891 5892 5893 5894 5895 5896 5897 5898 5898 5899 5899 5900 5900 5901 5901 5901 5902 5902 5902 5903 5903 5903 5903 5903 5903 5904 5904 5905 5905 5906 5906 5907
5838 5839 5842 5844 5846 5848 5850 5853 5855 5857 5859 5862 5864 5866 5868 5870 5872 5873 5873 5874 5875 5877 5877 5878 5880 5881 5883 5885 5886 5887 5887 5888 5889 5891 5892 5893 5894 5895 5896 5896 5897 5898 5898 5899 5899 5900 5900 5900 5901 5901 5901 5901 5901 5901 5901 5902 5902 5902 5902 5902 5902 5903 5903
5837 5838 5840 5842 5844 5846 5848 5850 5852 5854 5856 5858 5860 5862 5864 5867 5868 5870 5871 5872 5873 5874 5874 5875 5877 5878 5880 5881 5882 5883 5885 5886 5887 5888 5889 5890 5891 5892 5893 5894 5895 5896 5896 5897 5897 5898 5898 5899 5899 5899 5899 5900 5900 5900 5900 5900 5900 5900 5899 5899 5899 5899 5899
5834 5836 5838 5839 5841 5843 5845 5847 5849 5851 5853 5855 5857 5859 5861 5863 5865 5867 5869 5869 5870 5870 5871 5873 5874 5875 5876 5878 5879 5880 5882 5883 5884 5886 5887 5888 5889 5889 5890 5891 5892 5893 5894 5894 5895 5895 5896 5896 5897 5897 5897 5898 5898 5898 5898 5898 5898 5898 5897 5897 5896 5896 5896
5831 5833 5834 5836 5838 5840 5842 5844 5846 5848 5850 5852 5853 5856 5857 5859 5862 5864 5865 5866 5867 5868 5869 5870 5872 5872 5874 5875 5876 5878 5879 5880 5881 5883 5884 5885 5885 5886 5886 5887 5889 5890 5891 5891 5891 5892 5893 5894 5894 5895 5895 5895 5896 5896 5896 5896 5896 5895 5895 5894 5894 5893 5892
5828 5830 5831 5833 5835 5837 5839 5841 5843 5845 5847 5848 5850 5852 5854 5856 5859 5861 5862 5864 5865 5866 5867 5868 5869 5870 5872 5873 5874 5875 5876 5877 5879 5880 5880 5881 5882 5883 5884 5885 5885 5886 5887 5888 5888 5889 5889 5890 5890 5891 5892 5892 5892 5893 5893 5893 5893 5893 5893 5892 5891 5890 5889
5826 5828 5829 5831 5833 5835 5837 5839 5841 5843 5844 5845 5847 5849 5852 5853 5855 5857 5859 5861 5863 5864 5865 5866 5867 5868 5870 5871 5872 5873 5874 5875 5876 5876 5877 5878 5879 5880 5881 5882 5883 5883 5884 5884 5885 5886 5886 5886 5887 5888 5888 5888 5889 5889 5890 5890 5890 5891 5890 5890 5889 5888 5886
5823 5825 5827 5829 5830 5832 5835 5837 5838 5840 5841 5843 5845 5846 5848 5850 5852 5854 5857 5858 5860 5861 5862 5863 5865 5866 5867 5869 5870 5871 5872 5872 5873 5873 5874 5875 5876 5877 5878 5879 5880 5880 5880 5881 5881 5882 5883 5883 5883 5884 5884 5884 5884 5885 5886 5887 5887 5887 5887 5886 5885 5884 5883
5820 5822 5824 5826 5828 5829 5832 5834 5835 5837 5839 5840 5842 5843 5845 5847 5849 5851 5853 5855 5857 5859 5859 5861 5862 5863 5865 5866 5867 5868 5869 5869 5870 5870 5871 5872 5873 5874 5875 5876 5876 5877 5877 5877 5877 5878 5878 5879 5879 5879 5879 5880 5880 5881 5882 5882 5882 5882 5882 5882 5881 5880 5879
5816 5818 5821 5823 5825 5827 5828 5830 5832 5834 5835 5837 5839 5841 5842 5844 5846 5848 5850 5852 5854 5855 5857 5858 5859 5860 5861 5862 5864 5865 5865 5866 5867 5868 5869 5870 5870 5871 5871 5872 5873 5873 5872 5873 5873 5874 5874 5875 5875 5876 5876 5876 5876 5876 5877 5877 5877 5877 5878 5877 5876 5875 5874
5812 5814 5817 5819 5821 5824 5825 5827 5829 5830 5832 5834 5836 5837 5839 5840 5842 5844 5846 5848 5850 5852 5854 5855 5856 5856 5858 5859 5860 5861 5862 5863 5864 5865 5866 5867 5867 5867 5867 5868 5869 5868 5868 5869 5869 5870 5870 5871 5872 5872 5873 5872 5872 5871 5871 5872 5872 5872 5873 5873 5871 5870 5868
5808 5810 5813 5815 5817 5820 5822 5824 5825 5827 5828 5830 5832 5834 5836 5837 5838 5840 5842 5844 5846 5848 5850 5851 5851 5853 5854 5856 5857 5858 5859 5860 5861 5862 5862 5862 5863 5863 5863 5864 5864 5864 5864 5864 5865 5865 5866 5866 5867 5867 5868 5867 5867 5866 5866 5867 5866 5866 5867 5868 5867 5865 5864
5804 5806 5809 5811 5813 5815 5818 5820 5822 5823 5825 5826 5827 5830 5832 5833 5835 5837 5838 5840 5842 5844 5845 5846 5848 5849 5851 5852 5854 5855 5855 5856 5857 5858 5858 5858 5859 5859 5859 5859 5859 5859 5859 5860 5860 5860 5861 5861 5861 5862 5862 5862 5862 5861 5862 5862 5861 5861 5861 5863 5863 5861 5859
5799 5802 5804 5806 5808 5811 5813 5816 5817 5819 5821 5822 5824 5825 5828 5830 5831 5833 5835 5837 5838 5840 5841 5843 5844 5846 5847 5849 5850 5851 5852 5852 5853 5853 5854 5854 5855 5854 5855 5855 5855 5854 5855 5855 5855 5855 5856 5856 5856 5856 5856 5856 5856 5856 5856 5856 5856 5855 5856 5857 5857 5856 5855
5794 5797 5799 5802 5804 5806 5808 5811 5813 5815 5816 5818 5820 5822 5823 5825 5827 5829 5831 5833 5835 5836 5838 5839 5841 5842 5843 5845 5845 5846 5847 5848 5848 5849 5849 5850 5850 5850 5850 5850 5850 5850 5850 5850 5850 5850 5849 5850 5850 5849 5849 5850 5849 5849 5850 5849 5848 5848 5850 5851 5851 5850 5850
5790 5792 5795 5797 5799 5802 5804 5806 5808 5811 5812 5814 5816 5818 5820 5821 5823 5825 5826 5828 5830 5832 5833 5835 5836 5838 5839 5840 5841 5842 5842 5843 5844 5844 5845 5845 5845 5846 5846 5846 5845 5845 5845 5845 5844 5844 5843 5844 5843 5842 5842 5843 5843 5843 5843 5842 5841 5842 5843 5845 5844 5843 5843
5785 5787 5790 5793 5795 5797 5799 5801 5804 5806 5808 5810 5812 5814 5816 5817 5819 5820 5822 5823 5825 5827 5829 5830 5832 5833 5834 5835 5836 5837 5837 5838 5839 5839 5840 5840 5840 5841 5841 5840 5840 5840 5839 5839 5838 5838 5838 5838 5837 5836 5836 5835 5836 5836 5835 5834 5833 5835 5836 5836 5836 5836 5836
5780 5783 5785 5787 5790 5792 5794 5796 5799 5801 5803 5805 5808 5809 5811 5813 5814 5816 5817 5819 5820 5822 5823 5825 5826 5828 5829 5830 5831 5832 5832 5833 5834 5834 5835 5835 5835 5835 5835 5835 5834 5834 5834 5833 5833 5832 5832 5831 5831 5830 5829 5829 5828 5828 5827 5825 5825 5826 5827 5827 5828 5829 5829
5775 5777 5780 5782 5784 5787 5790 5792 5794 5796 5798 5800 5803 5805 5806 5808 5809 5811 5812 5814 5815 5817 5818 5819 5821 5822 5823 5824 5825 5826 5827 5828 5828 5829 5829 5829 5829 5829 5829 5829 5829 5829 5828 5828 5827 5826 5825 5825 5824 5823 5823 5822 5821 5820 5818 5817 5817 5819 5818 5818 5820 5821 5820
5770 5772 5774 5777 5779 5781 5784 5786 5789 5791 5793 5795 5797 5799 5801 5803 5804 5806 5807 5809 5810 5812 5813 5814 5816 5817 5818 5819 5820 5820 5821 5822 5822 5823 5823 5823 5822 5822 5822 5823 5822 5822 5822 5821 5820 5819 5819 5818 5817 5816 5816 5815 5813 5811 5810 5809 5811 5813 5811 5808 5810 5811 5809
5764 5767 5770 5772 5774 5776 5779 5781 5783 5785 5787 5789 5791 5793 5795 5797 5799 5801 5802 5804 5805 5807 5808 5809 5810 5811 5812 5813 5814 5814 5815 5815 5816 5816 5816 5816 5816 5816 5816 5816 5815 5815 5815 5814 5814 5812 5811 5811 5810 5809 5808 5806 5805 5804 5802 5800 5803 5806 5803 5799 5801 5801 5800
5758 5761 5764 5767 5769 5772 5774 5776 5778 5780 5782 5784 5786 5787 5789 5791 5793 5795 5797 5798 5800 5801 5803 5804 5804 5805 5806 5807 5807 5808 5808 5809 5809 5809 5809 5809 5809 5809 5809 5808 5807 5807 5807 5807 5806 5805 5804 5803 5802 5801 5800 5798 5796 5796 5794 5793 5794 5795 5794 5792 5791 5791 5791
5752 5755 5759 5762 5764 5767 5769 5770 5772 5774 5776 5778 5780 5782 5784 5786 5788 5789 5791 5792 5794 5795 5796 5797 5798 5799 5799 5800 5801 5801 5802 5802 5802 5802 5802 5802 5802 5801 5801 5801 5800 5800 5799 5799 5798 5797 5796 5795 5794 5793 5791 5789 5787 5786 5786 5785 5785 5784 5784 5784 5782 5781 5781
Wind_Speed
29 27 24 24 23 23 22 22 22 23 23 24 23 23 24 24 24 23 23 23 23 23 23 23 23 22 22 22 22 22 21 20 19 18 17 17 17 18 19 19 18 18 18 18 18 17 16 14 13 12 10 8 7 7 9 10 11 11 11 12 11 10 8
30 28 25 25 24 23 23 23 24 25 25 26 26 25 24 23 22 23 23 23 23 23 23 23 23 23 23 23 23 22 21 21 20 19 18 17 17 18 19 19 19 18 19 19 18 18 16 14 14 14 12 10 9 9 9 10 11 12 12 12 12 11 9
31 29 27 25 24 24 23 23 23 24 26 27 27 26 24 22 22 23 24 24 23 23 22 22 22 22 22 22 22 21 21 20 19 19 19 18 18 19 19 19 19 19 19 19 19 18 16 15 15 14 14 12 11 11 11 11 11 12 13 13 13 12 11
32 30 28 26 25 24 24 24 24 24 24 25 26 26 25 24 23 23 23 23 23 22 21 21 22 22 22 21 21 20 20 19 19 19 19 19 19 19 18 19 19 19 19 19 20 19 17 16 15 15 14 14 13 12 12 12 12 12 13 14 14 13 12
33 31 30 28 25 25 25 24 23 22 22 22 23 24 25 25 25 24 23 23 23 23 23 23 23 22 22 21 21 20 20 20 20 20 19 19 19 19 18 18 19 19 19 20 20 19 18 17 16 16 15 15 14 14 14 14 14 13 13 14 14 14 13
34 33 32 28 26 25 24 21 19 19 19 20 21 22 24 26 26 26 25 24 24 24 24 24 23 22 21 21 21 21 21 20 20 20 20 20 20 19 19 19 20 19 20 20 20 20 19 18 17 17 16 16 15 15 16 16 15 15 14 15 15 15 14
37 35 32 28 27 26 22 19 17 17 19 21 22 22 24 26 26 26 26 26 25 25 24 24 23 22 21 21 21 20 20 20 20 20 20 20 20 20 20 21 21 21 21 21 20 20 20 19 18 18 17 17 16 16 17 18 18 17 16 16 16 16 15
38 36 33 30 29 27 24 22 20 19 20 22 24 23 23 25 26 26 26 26 27 27 26 25 24 22 21 21 20 20 20 20 20 20 20 20 20 20 21 22 22 23 23 23 22 21 21 20 20 19 19 18 17 18 18 19 20 19 18 17 17 17 16
39 37 35 33 31 28 26 25 24 23 22 22 23 24 25 25 26 26 26 27 28 28 27 26 25 23 22 21 20 20 20 20 19 18 18 18 19 19 20 22 23 24 24 24 24 24 22 22 21 21 21 20 19 19 20 20 21 21 20 18 18 18 17
40 39 37 36 34 31 30 30 28 27 25 23 23 26 26 25 24 25 26 28 29 27 27 27 27 25 23 21 21 21 21 19 18 17 16 16 17 18 20 21 22 23 24 24 24 24 24 24 23 23 22 22 21 21 22 22 22 23 22 21 20 19 19
41 40 39 38 37 35 35 34 32 29 28 25 25 27 27 25 23 24 25 27 27 28 28 29 28 26 24 22 22 22 20 19 17 16 15 16 16 17 18 19 20 21 22 22 22 23 24 25 24 24 23 23 24 23 23 24 24 24 23 23 22 21 20
42 41 40 39 40 40 38 36 34 33 31 29 28 29 28 26 25 24 24 25 26 27 29 30 29 26 24 24 23 21 20 18 17 15 15 16 15 15 15 15 16 17 18 19 19 20 22 23 24 24 24 25 26 26 25 25 26 26 25 25 24 23 21
43 42 41 40 42 43 41 39 37 36 35 33 31 29 27 27 27 25 24 24 25 27 29 30 29 27 25 24 23 21 19 18 17 16 16 15 14 12 11 10 11 12 13 14 15 15 17 18 19 20 22 24 25 25 25 26 27 27 27 27 26 24 23
45 43 42 42 44 45 44 42 40 39 37 36 33 31 28 27 27 25 24 24 25 26 28 29 30 28 25 25 23 21 19 19 19 18 17 15 14 11 9 7 7 7 8 8 9 10 12 13 14 15 17 19 20 21 22 24 25 26 27 27 26 25 24
46 46 46 46 46 46 46 44 42 40 39 37 36 33 30 28 27 25 24 24 24 24 26 28 28 27 26 25 23 21 20 21 21 19 18 16 14 12 10 8 7 6 5 5 5 5 7 8 10 12 13 14 15 16 18 19 21 23 25 27 26 26 26
46 48 48 48 48 47 47 45 43 42 41 39 38 35 32 29 26 25 25 25 23 22 23 25 26 26 25 24 22 22 23 23 22 20 19 17 15 14 13 11 9 8 6 5 5 4 4 5 6 9 11 12 14 15 15 16 17 20 24 26 27 26 27
44 46 47 48 48 48 47 45 42 41 41 41 40 38 35 31 26 25 26 27 25 23 23 24 24 25 24 23 23 24 24 23 22 20 19 17 17 17 16 14 13 11 9 8 7 6 6 5 5 6 8 10 13 15 16 16 15 17 21 24 26 27 28
38 40 42 44 46 46 45 43 42 41 40 41 42 41 39 35 29 26 25 25 24 24 24 24 23 24 23 23 24 25 24 23 22 21 19 18 17 18 18 17 16 14 13 11 10 9 9 8 7 7 7 8 10 12 15 17 17 18 20 22 24 26 27
32 34 36 38 40 42 43 42 41 41 41 41 42 42 41 38 33 28 25 25 24 24 24 23 23 23 24 24 25 25 24 23 22 21 19 18 19 19 20 20 19 17 16 15 14 14 12 10 10 10 10 9 10 11 13 15 17 20 22 23 24 25 27
28 30 31 32 34 36 38 39 39 39 40 41 41 42 42 39 34 29 27 26 25 23 23 22 22 23 24 25 26 25 24 24 23 21 20 21 21 22 21 21 20 19 19 18 18 18 16 14 14 14 13 13 13 13 14 14 15 18 22 25 26 27 28
28 28 29 29 29 30 31 32 33 34 36 38 39 40 40 39 35 32 29 27 26 24 23 22 22 23 24 25 26 25 24 24 23 23 22 22 23 23 22 23 23 22 22 21 21 21 21 21 20 18 17 17 17 17 17 17 17 18 21 24 26 29 31
31 30 30 29 28 27 26 26 27 29 32 34 35 37 38 37 35 32 30 28 27 25 24 22 21 22 23 24 24 23 23 23 23 24 24 24 24 24 24 25 25 25 25 24 24 25 26 27 26 23 22 23 23 23 22 22 22 22 23 25 27 29 31
34 32 31 30 29 28 26 25 25 26 28 30 32 33 35 35 33 31 29 28 26 25 25 24 22 21 21 22 23 22 22 23 24 26 27 27 27 26 26 26 25 25 26 27 27 28 29 29 30 30 30 29 29 29 28 27 27 27 28 29 31 32 32
36 35 34 33 32 30 28 26 25 26 27 29 30 31 32 33 32 30 28 28 27 27 27 27 25 23 22 22 23 23 23 25 27 29 29 29 29 29 29 28 28 28 30 31 30 30 31 31 30 31 32 33 34 33 32 32 32 32 33 34 35 36 36
38 38 37 36 34 33 31 29 28 27 27 29 30 30 31 33 33 32 30 30 29 29 28 28 28 27 25 24 23 24 25 27 27 28 28 28 29 32 34 34 33 33 34 34 33 33 33 32 31 30 32 34 35 35 34 34 34 35 35 37 39 40 41
39 39 39 38 36 34 33 32 31 30 29 29 31 31 32 34 35 35 35 34 32 30 29 30 31 31 29 27 25 25 27 27 27 26 26 27 30 34 37 37 37 39 40 39 37 36 35 34 32 31 32 34 35 36 37 36 36 36 35 36 40 43 45
39 39 39 39 38 36 35 34 33 32 31 31 32 32 33 35 36 36 37 38 36 33 32 33 34 33 32 29 28 28 28 29 29 29 28 29 31 35 36 35 35 38 40 40 38 37 37 36 34 34 33 34 36 37 37 37 37 37 35 34 35 38 42
38 38 39 39 39 38 36 35 35 35 34 34 34 34 34 36 36 35 36 38 39 37 35 35 35 33 32 31 31 31 31 32 33 33 32 32 34 36 35 33 32 33 34 35 34 34 34 35 35 35 35 35 36 38 38 37 37 38 36 34 33 34 37
38 38 38 39 39 38 37 36 35 35 35 35 35 35 35 35 36 36 35 37 38 38 35 33 32 32 32 33 34 33 33 34 35 36 36 37 38 38 36 33 32 31 32 32 33 34 35 36 36 37 38 38 39 40 40 40 40 40 39 37 36 36 37
39 39 39 39 39 38 37 36 35 36 36 36 36 36 35 35 36 37 36 36 37 38 35 33 33 33 34 35 36 36 36 36 37 38 39 41 41 40 37 35 34 34 34 35 36 38 39 39 40 41 41 42 43 43 44 44 45 44 43 41 40 41 40
40 40 40 40 40 39 39 37 36 36 36 36 36 36 36 36 36 37 38 38 38 38 38 36 36 37 38 38 39 39 39 40 40 41 43 44 43 40 38 38 38 38 38 38 40 41 42 42 43 45 46 47 47 48 48 50 50 49 47 45 45 46 45
40 40 40 40 41 41 40 39 38 37 36 37 36 36 37 37 38 38 38 39 40 40 40 40 40 41 42 42 43 43 44 44 44 45 45 45 43 40 39 40 41 41 41 42 43 44 45 46 47 49 50 51 52 52 53 54 54 52 51 49 49 48 48
39 40 40 40 41 41 41 41 40 39 38 38 37 38 38 39 40 40 40 40 41 41 42 42 43 44 45 46 47 47 48 47 46 45 44 43 42 42 42 43 44 45 46 46 46 48 49 50 52 54 54 55 55 56 57 58 58 56 54 53 52 50 50
38 39 39 40 41 41 41 41 41 40 39 39 38 39 39 39 40 41 42 42 42 42 43 43 44 44 45 46 47 47 46 45 44 43 43 44 45 46 46 47 47 48 48 49 49 51 52 53 55 56 57 58 58 58 59 60 59 59 58 57 54 53 54
39 39 39 39 40 40 41 41 41 41 41 40 39 39 39 39 39 40 42 43 44 44 44 44 44 45 45 46 45 45 45 45 45 45 46 47 49 50 50 50 50 49 49 50 51 52 53 54 55 57 57 58 60 61 62 62 61 60 62 62 60 58 59
40 40 40 40 39 40 40 41 41 41 41 40 39 38 38 38 37 38 39 42 43 44 45 45 46 47 47 47 47 47 48 48 48 49 51 52 53 54 53 53 52 52 51 51 51 53 55 56 56 58 59 60 62 63 65 66 65 63 64 66 64 63 64
42 41 41 41 40 39 40 40 40 41 41 40 39 38 38 38 38 37 38 38 40 41 43 45 47 49 50 51 52 52 53 53 53 54 54 55 55 55 54 54 54 54 54 54 55 56 57 58 58 59 61 62 64 65 66 67 67 66 65 66 66 66 66
43 42 41 41 41 41 41 40 41 41 41 41 41 40 40 39 39 39 39 39 40 41 42 44 45 46 48 49 50 51 52 52 53 53 53 53 53 53 53 54 54 55 56 57 58 58 59 60 61 61 62 64 65 66 66 67 68 68 67 66 67 68 67
Wind_Direction
203 202 201 199 201 203 202 198 194 195 195 193 196 202 206 207 206 206 206 206 207 208 209 209 208 208 209 210 212 215 218 220 221 220 219 219 221 226 231 233 232 231 232 233 233 235 240 239 235 238 246 262 281 291 293 291 286 283 281 283 283 277 275
204 202 202 201 202 204 205 204 199 197 196 194 196 201 205 208 208 208 208 208 209 210 211 212 212 212 211 212 213 216 218 220 222 222 223 223 224 226 230 234 235 233 232 234 236 238 241 240 238 241 245 255 272 284 291 290 286 282 279 280 281 277 273
205 203 203 204 204 204 205 207 207 204 200 198 200 202 203 205 208 210 210 210 210 211 212 214 215 216 216 217 218 220 222 224 225 225 225 226 226 227 229 232 235 236 234 235 237 239 240 240 240 242 244 250 261 274 285 289 286 282 278 278 279 276 272
206 205 206 207 206 206 206 208 211 211 208 204 203 204 204 205 208 212 212 211 209 208 210 213 216 217 219 222 224 226 229 230 230 229 228 229 231 232 232 234 236 237 237 237 237 239 239 239 240 242 244 248 254 264 277 285 286 284 279 276 277 276 272
207 206 208 209 208 209 210 211 212 215 217 215 212 210 207 207 209 210 211 213 211 209 209 211 214 218 222 226 229 231 234 236 238 238 237 237 238 239 239 239 239 239 239 239 239 240 239 237 239 242 245 248 251 258 270 281 284 283 278 275 275 275 272
208 209 209 208 209 213 214 213 213 217 220 221 222 220 217 214 212 210 210 213 215 216 215 215 216 220 225 229 232 234 237 240 243 246 247 247 247 246 245 244 244 244 243 242 242 242 241 239 239 241 245 249 252 255 265 275 280 280 278 274 273 273 271
210 210 210 208 211 216 214 209 211 219 223 222 222 224 225 223 218 216 214 214 216 220 221 221 222 224 227 231 234 237 239 241 244 246 249 251 252 252 251 250 249 248 247 246 245 244 243 242 241 242 246 250 253 254 259 267 274 277 277 273 271 270 269
213 212 210 209 212 214 210 205 208 220 228 228 226 224 227 229 226 224 223 221 222 222 223 225 225 226 229 233 235 238 240 240 242 245 247 249 251 252 252 252 251 250 249 248 247 246 245 243 242 244 248 251 254 255 256 261 267 273 275 272 268 268 266
213 211 210 210 211 212 209 206 206 214 224 231 234 232 227 229 231 231 231 231 231 229 227 228 228 228 230 231 233 236 237 238 240 243 246 248 250 250 251 252 251 251 250 248 247 247 247 246 244 245 248 252 254 255 256 258 262 267 271 270 266 265 265
211 210 210 211 210 208 209 209 208 211 218 224 236 241 235 231 233 235 237 238 238 237 235 233 232 231 231 231 232 233 234 235 237 241 244 247 248 248 248 249 250 251 252 251 249 248 247 247 247 247 249 252 254 255 255 255 256 261 266 266 264 263 263
210 211 213 214 212 210 212 213 211 214 218 221 231 243 245 242 239 239 241 243 243 243 241 238 236 235 235 234 233 233 233 234 236 239 243 245 246 247 249 250 251 252 253 253 252 250 248 248 248 249 250 252 253 253 253 253 252 254 259 261 261 259 260
210 211 214 216 215 214 216 218 217 219 222 224 229 240 246 247 246 245 245 247 246 244 243 242 240 238 236 236 235 234 233 234 236 239 242 244 245 247 250 253 253 253 253 253 251 249 248 249 249 249 250 251 251 252 251 251 250 250 253 256 258 258 258
210 212 214 214 215 217 218 220 221 222 224 226 230 236 242 248 251 251 251 252 251 247 244 243 241 240 237 236 235 233 231 233 234 237 240 241 240 243 248 248 247 247 248 248 247 244 244 245 245 244 245 247 249 249 249 249 249 249 251 253 256 257 257
209 211 212 213 214 217 219 221 223 224 226 228 229 231 236 245 252 252 252 253 254 252 249 245 242 240 238 236 235 233 230 230 232 235 238 239 236 237 237 232 229 231 233 235 234 233 233 235 236 237 238 241 244 246 247 248 249 250 251 252 254 255 256
209 210 212 213 214 216 219 222 223 225 226 227 228 228 230 240 249 251 250 251 254 256 253 247 243 240 237 236 236 232 229 228 231 235 238 238 235 232 228 221 216 211 206 202 199 205 217 228 234 237 239 242 244 247 248 249 250 252 252 253 253 254 255
210 211 213 214 216 217 220 222 223 224 224 223 224 225 227 234 244 250 249 249 251 253 251 247 244 240 237 236 235 230 226 227 232 236 238 238 235 232 228 224 220 214 206 200 193 192 205 221 234 241 243 245 248 251 252 253 253 253 253 254 254 253 252
215 215 215 217 219 221 223 224 224 224 222 220 220 222 224 228 238 246 249 249 248 248 249 247 244 241 238 234 231 227 224 227 232 236 238 239 238 236 233 230 228 224 218 214 209 211 217 218 225 242 248 249 251 253 253 254 253 254 253 254 254 253 251
221 221 220 221 222 224 227 228 227 226 222 219 220 222 223 227 232 239 247 250 248 246 247 246 245 243 239 231 226 223 223 226 230 233 237 239 241 241 239 236 235 234 232 229 226 228 230 225 228 242 253 258 262 262 260 256 252 252 253 253 254 253 251
223 225 226 226 225 226 228 230 229 228 224 222 221 222 224 226 228 233 243 248 249 248 248 247 246 243 237 229 223 219 220 224 229 233 237 240 241 241 241 240 240 241 241 240 240 243 243 238 240 247 253 258 264 270 271 266 257 253 252 252 254 254 253
222 222 224 226 226 226 228 230 231 229 227 226 225 224 225 226 227 229 237 244 249 251 252 249 246 241 235 228 222 217 218 225 230 235 236 236 237 238 241 244 245 245 244 245 249 254 254 251 251 255 258 258 259 262 267 272 271 265 260 257 255 256 256
224 221 222 223 224 225 227 229 230 230 229 229 229 227 226 227 228 229 235 242 246 249 251 250 247 243 237 231 226 223 225 230 235 238 237 235 235 238 241 245 248 250 250 250 253 257 260 260 260 260 260 261 261 260 261 265 271 274 273 270 265 262 261
228 225 224 224 226 228 229 231 231 230 229 229 229 227 226 227 229 231 233 238 243 246 250 251 250 248 243 238 234 232 233 236 239 241 241 241 242 242 243 246 249 252 254 254 254 256 259 263 266 266 265 264 263 262 263 265 268 272 277 278 276 271 268
235 232 229 229 232 234 234 234 235 234 233 231 228 225 224 225 230 231 231 235 240 245 250 254 255 255 252 248 244 242 243 244 242 241 243 247 249 249 249 249 250 252 254 255 255 255 256 258 261 263 265 265 265 264 264 264 265 267 271 274 276 277 276
238 237 234 233 234 236 238 239 238 238 238 236 232 227 223 223 228 231 232 234 239 244 250 255 258 259 258 254 251 252 256 254 248 244 246 252 256 257 255 252 251 253 255 254 253 253 253 252 254 258 262 264 267 268 269 269 268 266 265 266 269 272 275
236 237 237 235 234 234 237 240 241 241 241 240 238 233 226 223 225 227 229 232 237 242 248 254 258 259 259 259 258 259 262 260 254 252 255 260 262 261 257 254 254 255 255 254 254 255 255 256 258 261 265 267 269 272 274 275 275 272 268 266 265 266 266
235 237 238 238 236 234 234 237 239 241 242 243 242 238 232 228 226 225 225 228 233 240 246 250 254 256 257 260 261 262 264 261 257 258 262 263 262 261 259 257 257 258 255 253 255 256 256 258 261 265 268 270 270 272 274 275 275 274 272 271 269 267 265
235 237 239 239 239 236 233 233 236 238 240 242 243 240 236 233 230 227 225 225 228 235 241 245 249 252 254 258 260 261 264 263 261 262 263 261 260 262 264 264 265 265 261 257 258 260 259 259 261 264 266 267 267 269 271 273 275 274 272 272 274 274 273
235 237 239 240 241 240 237 234 234 237 239 241 242 241 239 238 235 230 226 225 225 230 236 242 246 249 252 255 258 260 261 262 263 264 264 263 264 267 269 269 269 268 263 260 262 263 263 262 263 264 266 268 269 270 272 274 275 274 273 272 275 277 279
236 237 239 240 241 242 240 237 234 236 238 239 240 241 240 241 241 238 231 226 225 228 234 241 244 246 249 252 254 256 257 258 261 263 264 265 267 268 268 266 265 265 262 261 263 264 265 265 267 269 272 274 275 275 277 277 277 276 275 274 274 274 274
235 237 239 241 242 242 241 238 235 234 236 238 239 240 240 241 243 244 241 235 230 229 233 239 243 244 246 249 251 253 254 256 258 259 261 263 265 265 264 263 264 264 265 265 266 268 269 271 273 275 277 278 278 278 279 279 278 277 276 274 274 273 272
234 236 238 240 242 243 242 240 236 234 235 236 238 239 241 242 243 245 245 244 240 235 234 237 241 244 246 248 250 252 253 255 256 258 259 261 262 262 263 266 267 268 269 270 271 272 274 275 276 278 279 279 279 279 278 277 277 276 275 273 272 271 272
234 235 236 238 241 243 243 242 240 237 236 236 237 238 240 242 244 245 246 246 246 243 240 239 240 242 245 247 249 251 253 255 257 258 258 259 260 262 266 269 270 271 272 272 272 273 274 273 273 275 276 276 277 277 277 276 276 275 275 273 271 270 271
235 236 236 238 239 241 243 243 243 242 240 238 237 238 240 243 245 246 246 246 247 246 244 242 241 242 244 247 249 252 254 256 257 258 259 261 263 266 269 270 272 273 273 273 272 272 271 270 270 271 273 274 275 275 275 275 275 276 275 274 273 274 274
237 237 238 238 240 241 242 243 243 243 243 242 240 239 240 242 245 246 247 246 246 247 247 247 246 246 247 249 251 253 255 257 257 259 261 263 265 268 270 271 272 273 272 271 270 269 269 269 269 270 271 272 273 273 273 274 275 276 277 277 276 275 274
237 239 239 240 241 242 244 244 245 245 245 244 243 241 240 241 243 245 245 246 246 247 248 250 251 252 253 254 254 255 256 257 257 259 261 263 264 267 269 270 271 270 268 266 266 266 266 267 268 269 271 272 273 274 275 275 276 276 276 277 278 277 274
238 239 240 241 242 243 245 247 247 246 246 246 245 244 242 241 242 243 244 245 246 248 249 251 252 253 255 256 256 256 256 257 258 259 261 262 264 266 268 269 268 267 266 265 265 265 267 268 270 272 273 274 275 276 276 276 277 275 274 274 276 276 275
239 239 240 241 242 244 246 248 248 248 248 247 246 245 245 244 244 244 244 244 245 247 249 250 252 253 254 255 256 257 258 259 260 261 262 264 265 267 268 268 267 266 266 266 266 267 269 271 272 274 275 275 275 275 275 276 276 274 272 272 273 273 272
241 241 242 243 243 244 245 247 249 249 249 248 247 246 245 245 245 246 246 247 248 249 250 251 252 252 253 254 256 257 258 259 260 261 263 264 265 266 266 266 266 266 266 266 267 268 269 271 272 273 274 274 275 275 275 275 275 275 273 272 272 272 271